[[{"header":{"parameterUnit":"m.s-1","parameterCategory":1,"la1":30.2991,"la2":30.254,"lo1":-89.0895,"lo2":-89.0444,"dy":0.0017,"dx":0.0017,"nx":28,"ny":28,"refTime":"2026-01-10T03:00:00:Z","depth":0,"parameterNumber":2,"parameterNumberName":"U-component_of_WINDS"},"data":[0,0,0,0,0,0,0,0,0,0,0,0,0,0,0,0,0,0,0,0,0,0,0,0,0,0,0,0,0,0,0,0,0,0,0,0,0,0,0,0,0,0,0,0,0,0,0,0,0,0,0,0,0,0,0,0,0,0,-0.3675,-0.3676,0,-0.3756,-0.3757,-0.3758,-0.3752,-0.3751,-0.375,-0.3749,-0.3836,-0.3839,-0.3843,0,0,0,0,0,0,0,0,0,0,0,0,0,-0.3517,-0.352,-0.3675,-0.3676,-0.3677,-0.3756,-0.3757,-0.3758,-0.3753,-0.3751,-0.375,-0.3748,-0.3835,-0.3839,-0.3843,0,0,0,0,0,0,0,0,0,0,0,0,0,-0.3591,-0.3521,-0.3675,-0.3684,-0.3685,-0.3756,-0.3757,-0.3759,-0.3753,-0.3751,-0.3749,-0.3747,-0.3833,-0.3838,-0.3843,-0.3912,0,0,-0.3859,-0.3862,0,0,0,0,0,0,0,0,-0.3587,-0.3597,-0.3681,-0.3683,-0.3685,-0.3742,-0.3734,-0.381,-0.3753,-0.3727,-0.3749,-0.3747,-0.3806,-0.3814,-0.3833,-0.3916,-0.392,-0.386,-0.3863,-0.3865,-0.3867,0,0,0,0,0,0,0,-0.3582,-0.3593,-0.3707,-0.3682,-0.3685,-0.3684,-0.3693,-0.3748,-0.3776,-0.3729,-0.3729,-0.3739,-0.3807,-0.3828,-0.3835,-0.3921,-0.386,-0.3864,-0.3867,-0.3869,-0.4064,-0.4066,0,0,0,0,0,0,-0.3574,-0.3589,-0.3705,-0.371,-0.363,-0.3689,-0.3698,-0.3726,-0.3776,-0.3781,-0.374,-0.3738,-0.382,-0.3829,-0.3838,-0.3922,-0.3865,-0.387,-0.3873,-0.4062,-0.4065,-0.4067,0,0,0,0,0,0,-0.3571,-0.3585,-0.3701,-0.3649,-0.3664,-0.3693,-0.3724,-0.3728,-0.3749,-0.3784,-0.3789,-0.3756,-0.3819,-0.3831,-0.3893,-0.3925,-0.3872,-0.3877,-0.406,-0.4063,-0.4066,-0.409,0,0,0,0,0,0,-0.3566,-0.3583,-0.3609,-0.365,-0.3667,-0.3755,-0.3726,-0.3731,-0.3758,-0.3756,-0.38,-0.3806,-0.3819,-0.3886,-0.3899,-0.3931,-0.3881,-0.4057,-0.4061,-0.4065,-0.4087,-0.4093,-0.4099,0,0,0,0,0,-0.3561,-0.3614,-0.3611,-0.3625,-0.37,-0.3757,-0.3766,-0.3779,-0.376,-0.3787,-0.3809,-0.3804,-0.3919,-0.3892,-0.3907,-0.3941,-0.4055,-0.406,-0.4064,-0.4084,-0.4092,-0.4099,0,0,0,0,0,0,-0.3578,-0.3619,-0.3616,-0.3684,-0.3717,-0.3755,-0.379,-0.3787,-0.3827,-0.3824,-0.3839,-0.3849,-0.3912,-0.3932,-0.3902,-0.401,-0.3985,-0.3992,-0.3994,-0.4003,-0.4009,-0.4004,-0.3885,0,0,0,0,0,-0.3589,-0.3631,-0.3665,-0.3722,-0.3738,-0.3761,-0.3786,-0.3792,-0.3827,-0.3842,-0.3868,-0.3903,-0.3947,-0.3976,-0.4018,-0.4089,-0.4099,-0.4119,-0.4126,-0.4131,-0.4138,-0.4177,-0.4187,-0.4082,-0.4082,-0.4082,0,0,-0.3614,-0.3642,-0.3667,-0.3726,-0.3752,-0.3795,-0.3773,-0.382,-0.3853,-0.3849,-0.391,-0.393,-0.397,-0.4037,-0.4068,-0.4056,-0.4169,-0.4137,-0.4141,-0.4145,-0.4183,-0.4193,-0.4202,-0.4085,-0.4085,-0.4084,0,0,-0.3681,-0.3706,-0.3756,-0.3781,-0.382,-0.3835,-0.3847,-0.3886,-0.3899,-0.3959,-0.3957,-0.3997,-0.4072,-0.41,-0.4125,-0.42,-0.4198,-0.4214,-0.4248,-0.4286,-0.4294,-0.4302,-0.433,-0.4339,-0.422,-0.422,-0.422,0,-0.3708,-0.3772,-0.3782,-0.3829,-0.3855,-0.3851,-0.3902,-0.3927,-0.3979,-0.3997,-0.3983,-0.4076,-0.4103,-0.4176,-0.4195,-0.4214,-0.4229,-0.421,-0.4292,-0.43,-0.4307,-0.4334,-0.4344,-0.4222,-0.4222,-0.4222,-0.4221,0,-0.3803,-0.3847,-0.3883,-0.3931,-0.3961,-0.401,-0.4027,-0.4056,-0.4059,-0.4075,-0.4137,-0.4168,-0.4217,-0.4234,-0.4239,-0.4308,-0.43,-0.4289,-0.4264,-0.4318,-0.4344,-0.4354,-0.4224,-0.4224,-0.4223,-0.4223,0,0,-0.3886,-0.3936,-0.395,-0.3971,-0.4013,-0.4048,-0.4097,-0.4142,-0.4167,-0.4202,-0.4244,-0.4306,-0.4296,-0.4323,-0.433,-0.4363,-0.4422,-0.4348,-0.4349,-0.4362,-0.4501,-0.451,-0.4522,-0.4419,-0.4421,-0.4423,-0.4498,0,-0.3958,-0.4043,-0.4052,-0.4129,-0.417,-0.4166,-0.4209,-0.4239,-0.4255,-0.4294,-0.4311,-0.4356,-0.4338,-0.4355,-0.4387,-0.4408,-0.445,-0.4402,-0.446,-0.4462,-0.4451,-0.4535,-0.4546,-0.4615,-0.4508,-0.451,-0.4511,0,-0.4055,-0.4091,-0.4171,-0.4206,-0.4224,-0.4261,-0.4304,-0.434,-0.4374,-0.4383,-0.4413,-0.4415,-0.4466,-0.4438,-0.4508,-0.4475,-0.4499,-0.4512,-0.4515,-0.4523,-0.4491,-0.4546,-0.4637,-0.4648,-0.4527,-0.4525,-0.4524,0,-0.4108,-0.4177,-0.4233,-0.4252,-0.4294,-0.432,-0.4339,-0.4372,-0.4398,-0.4435,-0.4453,-0.4495,-0.4519,-0.4553,-0.4567,-0.4544,-0.4636,-0.4609,-0.4646,-0.4646,-0.4668,-0.4667,-0.4765,-0.468,-0.468,-0.468,-0.468,0,-0.4189,-0.4239,-0.4258,-0.4293,-0.4348,-0.4358,-0.4412,-0.443,-0.4459,-0.4498,-0.4497,-0.4534,-0.4549,-0.4589,-0.46,-0.4656,-0.4667,-0.4677,-0.4679,-0.4678,-0.4677,-0.4695,-0.4691,-0.4683,-0.4682,-0.4682,-0.4681,0,-0.4259,-0.4274,-0.4336,-0.437,-0.4379,-0.4418,-0.4448,-0.4482,-0.4496,-0.4546,-0.4558,-0.4581,-0.4627,-0.4644,-0.47,-0.4707,-0.4774,-0.4772,-0.4762,-0.4763,-0.48,-0.4796,-0.4915,-0.4931,-0.4834,-0.4835,-0.4836,0,-0.4311,-0.4349,-0.4386,-0.4411,-0.4431,-0.4472,-0.4498,-0.4509,-0.4537,-0.4578,-0.4607,-0.4652,-0.4689,-0.4763,-0.4786,-0.4829,-0.4828,-0.4867,-0.4835,-0.4832,-0.483,-0.4828,-0.4832,-0.4874,-0.4875,-0.4875,-0.4876,0,-0.4401,-0.4406,-0.4444,-0.4484,-0.4515,-0.4547,-0.4579,-0.46,-0.4615,-0.4646,-0.4693,-0.4721,-0.4777,-0.4823,-0.4866,-0.4887,-0.4885,-0.4885,-0.4896,-0.4896,-0.4889,-0.4894,-0.4779,-0.4883,-0.4882,-0.4882,-0.4882,-0.4881,-0.4465,-0.4498,-0.4529,-0.457,-0.4595,-0.4624,-0.4657,-0.4675,-0.4713,-0.4759,-0.4763,-0.4813,-0.4845,-0.4903,-0.4926,-0.4965,-0.4955,-0.4971,-0.4975,-0.4979,-0.4982,-0.4881,-0.4973,-0.4973,-0.4973,-0.4973,-0.4972,0,-0.4556,-0.4575,-0.4613,-0.4656,-0.4689,-0.4681,-0.4715,-0.4744,-0.4787,-0.4817,-0.4853,-0.4906,-0.4949,-0.4974,-0.5017,-0.5044,-0.5044,-0.5056,-0.5055,-0.5059,-0.4989,-0.4975,-0.5055,-0.5055,-0.5055,-0.5055,-0.5055,-0.5055,-0.4607,-0.4662,-0.4671,-0.4738,-0.4757,-0.4805,-0.4825,-0.4852,-0.4876,-0.4935,-0.497,-0.4985,-0.5013,-0.5058,-0.5098,-0.5104,-0.5121,-0.5133,-0.5139,-0.5073,-0.5064,-0.5056,-0.5044,-0.5136,-0.5137,-0.5206,-0.5207,-0.5207]},{"header":{"parameterUnit":"m.s-1","parameterCategory":1,"la1":30.2991,"la2":30.254,"lo1":-89.0895,"lo2":-89.0444,"dy":0.0017,"dx":0.0017,"nx":28,"ny":28,"refTime":"2026-01-10T03:00:00:Z","depth":0,"parameterNumber":3,"parameterNumberName":"V-component_of_WINDS"},"data":[0,0,0,0,0,0,0,0,0,0,0,0,0,0,0,0,0,0,0,0,0,0,0,0,0,0,0,0,0,0,0,0,0,0,0,0,0,0,0,0,0,0,0,0,0,0,0,0,0,0,0,0,0,0,0,0,0,0,-6.78,-6.7801,0,-6.7956,-6.7958,-6.796,-6.7877,-6.7873,-6.7868,-6.7864,-6.8023,-6.8031,-6.8039,0,0,0,0,0,0,0,0,0,0,0,0,0,-6.7426,-6.7434,-6.7799,-6.7801,-6.7803,-6.7956,-6.7958,-6.796,-6.7878,-6.7872,-6.7867,-6.7863,-6.802,-6.803,-6.8039,0,0,0,0,0,0,0,0,0,0,0,0,0,-6.7586,-6.7436,-6.7799,-6.7781,-6.778,-6.7956,-6.7958,-6.7961,-6.7879,-6.7872,-6.7866,-6.786,-6.8017,-6.8029,-6.8041,-6.8242,0,0,-6.8078,-6.8083,0,0,0,0,0,0,0,0,-6.7577,-6.76,-6.7781,-6.7782,-6.7782,-6.7891,-6.7884,-6.8055,-6.788,-6.7841,-6.7864,-6.7857,-6.7984,-6.7998,-6.8041,-6.825,-6.8256,-6.8079,-6.8086,-6.8092,-6.8095,0,0,0,0,0,0,0,-6.7566,-6.7593,-6.7861,-6.7784,-6.7785,-6.7764,-6.7779,-6.7916,-6.7946,-6.7844,-6.7839,-6.7858,-6.7983,-6.803,-6.8044,-6.8259,-6.8079,-6.809,-6.8097,-6.8102,-6.864,-6.8646,0,0,0,0,0,0,-6.7557,-6.7584,-6.7856,-6.7866,-6.7662,-6.7776,-6.7793,-6.7862,-6.7944,-6.7951,-6.7864,-6.7854,-6.8012,-6.803,-6.805,-6.8291,-6.8092,-6.8103,-6.811,-6.8633,-6.8641,-6.8649,0,0,0,0,0,0,-6.7549,-6.7582,-6.785,-6.7724,-6.7756,-6.7789,-6.7867,-6.7869,-6.7916,-6.7959,-6.7963,-6.7907,-6.8008,-6.8033,-6.8195,-6.8295,-6.8109,-6.812,-6.8625,-6.8635,-6.8645,-6.8776,0,0,0,0,0,0,-6.7539,-6.7579,-6.7657,-6.7726,-6.7763,-6.7994,-6.7873,-6.7876,-6.7937,-6.7926,-6.8,-6.8007,-6.8005,-6.8177,-6.8207,-6.8309,-6.8129,-6.8616,-6.8629,-6.8642,-6.8763,-6.8789,-6.8812,0,0,0,0,0,-6.7526,-6.7687,-6.7661,-6.7695,-6.7861,-6.8,-6.8021,-6.8017,-6.7946,-6.8024,-6.8051,-6.8004,-6.828,-6.8195,-6.8228,-6.8335,-6.8609,-6.8626,-6.8641,-6.8751,-6.8784,-6.8812,0,0,0,0,0,0,-6.7628,-6.7696,-6.7668,-6.7857,-6.7924,-6.7986,-6.8084,-6.8051,-6.8139,-6.8125,-6.8114,-6.8132,-6.8301,-6.8333,-6.8238,-6.8533,-6.8433,-6.8456,-6.8506,-6.8538,-6.8562,-6.8551,-6.8139,0,0,0,0,0,-6.7673,-6.7781,-6.7834,-6.7995,-6.803,-6.8052,-6.8112,-6.8103,-6.8171,-6.8198,-6.8238,-6.8305,-6.8406,-6.8474,-6.8569,-6.8766,-6.8781,-6.8856,-6.8881,-6.8901,-6.8921,-6.9028,-6.9062,-6.87,-6.87,-6.87,0,0,-6.7767,-6.7817,-6.7885,-6.8017,-6.8068,-6.8179,-6.8076,-6.8198,-6.828,-6.8216,-6.8373,-6.8404,-6.8478,-6.8659,-6.8741,-6.8692,-6.9024,-6.8921,-6.8937,-6.8946,-6.9047,-6.9082,-6.9112,-6.8711,-6.8709,-6.8707,0,0,-6.7994,-6.8043,-6.8183,-6.8236,-6.8314,-6.8327,-6.836,-6.8428,-6.8447,-6.8603,-6.8558,-6.8655,-6.883,-6.8885,-6.8936,-6.9183,-6.9143,-6.9215,-6.9345,-6.9448,-6.9477,-6.9502,-6.9591,-6.9623,-6.9234,-6.9235,-6.9235,0,-6.81,-6.8267,-6.8259,-6.8385,-6.8444,-6.8392,-6.8533,-6.8584,-6.869,-6.8731,-6.8675,-6.8894,-6.894,-6.9133,-6.9193,-6.9236,-6.9274,-6.9207,-6.9474,-6.9499,-6.9522,-6.9606,-6.964,-6.9243,-6.9242,-6.9241,-6.924,0,-6.8394,-6.851,-6.8614,-6.8717,-6.8788,-6.8921,-6.8932,-6.9005,-6.8989,-6.9008,-6.9168,-6.9221,-6.9327,-6.9372,-6.9357,-6.9563,-6.953,-6.9474,-6.9373,-6.9565,-6.9644,-6.9676,-6.9255,-6.9252,-6.9249,-6.9247,0,0,-6.8691,-6.8788,-6.8827,-6.8873,-6.8955,-6.9044,-6.9174,-6.9278,-6.9341,-6.9414,-6.9523,-6.9673,-6.9621,-6.9679,-6.967,-6.9761,-6.9954,-6.9694,-6.9695,-6.9741,-7.0184,-7.0226,-7.0264,-6.9928,-6.9934,-6.9939,-7.0178,0,-6.8924,-6.9153,-6.915,-6.9362,-6.9469,-6.942,-6.9534,-6.9596,-6.9617,-6.971,-6.9732,-6.9838,-6.9762,-6.9797,-6.9885,-6.9912,-7.0043,-6.9895,-7.0029,-7.0033,-7.0012,-7.0305,-7.035,-7.0573,-7.0208,-7.0214,-7.0217,0,-6.9227,-6.9312,-6.9535,-6.9601,-6.9646,-6.9748,-6.9843,-6.9933,-7.0002,-7.001,-7.0075,-7.0052,-7.0183,-7.0078,-7.0259,-7.0158,-7.0212,-7.0234,-7.0242,-7.0255,-7.0138,-7.0326,-7.0644,-7.0677,-7.0266,-7.0262,-7.0259,0,-6.9422,-6.9592,-6.9747,-6.9788,-6.9869,-6.9942,-6.9979,-7.0042,-7.0104,-7.0187,-7.0227,-7.0324,-7.0377,-7.0452,-7.0455,-7.0378,-7.0637,-7.0533,-7.0648,-7.0648,-7.0705,-7.0702,-7.1037,-7.074,-7.0739,-7.0739,-7.0738,0,-6.9683,-6.9822,-6.9836,-6.9932,-7.0085,-7.0079,-7.0231,-7.026,-7.0317,-7.0417,-7.038,-7.0474,-7.0472,-7.0568,-7.0571,-7.072,-7.0744,-7.0755,-7.0754,-7.0759,-7.0757,-7.0794,-7.0779,-7.0747,-7.0745,-7.0744,-7.0742,0,-6.9927,-6.9942,-7.0109,-7.0172,-7.0191,-7.0301,-7.0354,-7.0445,-7.0462,-7.0589,-7.0618,-7.0646,-7.0756,-7.0767,-7.0895,-7.0897,-7.1077,-7.1059,-7.1055,-7.1052,-7.1167,-7.1156,-7.1538,-7.1588,-7.1258,-7.1261,-7.1263,0,-7.0093,-7.0199,-7.0273,-7.0338,-7.0379,-7.0484,-7.0548,-7.0545,-7.0613,-7.07,-7.078,-7.0887,-7.0973,-7.1153,-7.1183,-7.1281,-7.1265,-7.1392,-7.128,-7.1281,-7.1268,-7.1262,-7.1272,-7.1414,-7.1418,-7.1421,-7.1423,0,-7.0386,-7.0389,-7.0483,-7.058,-7.0658,-7.0734,-7.0805,-7.086,-7.0866,-7.0944,-7.1057,-7.1124,-7.1256,-7.1363,-7.1459,-7.1495,-7.1461,-7.1458,-7.149,-7.1497,-7.149,-7.1495,-7.1115,-7.145,-7.1447,-7.1445,-7.1444,-7.1443,-7.0597,-7.0688,-7.0755,-7.0861,-7.0915,-7.0982,-7.107,-7.1099,-7.1194,-7.1301,-7.1293,-7.1419,-7.1484,-7.1609,-7.1653,-7.1751,-7.1708,-7.1754,-7.1766,-7.1778,-7.179,-7.1474,-7.1768,-7.1767,-7.1767,-7.1766,-7.1765,0,-7.0888,-7.0929,-7.1027,-7.1128,-7.1211,-7.1172,-7.1248,-7.132,-7.1432,-7.1496,-7.1581,-7.1711,-7.1815,-7.1853,-7.1954,-7.2024,-7.2011,-7.2051,-7.2046,-7.2055,-7.1822,-7.1785,-7.206,-7.206,-7.206,-7.206,-7.206,-7.206,-7.105,-7.1203,-7.1213,-7.1392,-7.1431,-7.1554,-7.1601,-7.1663,-7.1714,-7.1862,-7.1948,-7.1972,-7.2026,-7.213,-7.2223,-7.2232,-7.2271,-7.2318,-7.232,-7.2101,-7.2071,-7.2043,-7.2008,-7.2326,-7.2326,-7.2544,-7.2546,-7.2548]}]]